WetterOnline ( https://www.wetteronline.ch )

Wetter aktuell Wittenberg

Aktuelles Wetter: Wittenberg (106m)

6-stündlich | Neueste Meldungen
Ortszeit Temperatur Wetter
Do, 01.10. 2:00 8.4° C fast wolkenlos
Mi, 30.09. 20:00 12.2° C wolkig
Mi, 30.09. 14:00 18.0° C leicht bewölkt
Mi, 30.09. 8:00 6.6° C wolkenlos
Mi, 30.09. 2:00 9.8° C wolkenlos
Di, 29.09. 20:00 13.1° C fast wolkenlos
Di, 29.09. 14:00 17.2° C wolkig
Di, 29.09. 8:00 11.1° C bedeckt
Ortszeit Temperatur Wetter
Do, 01.10. 7:00 6.6° C wolkenlos
Do, 01.10. 6:40 6.8° C wolkenlos
Do, 01.10. 6:30 6.6° C wolkenlos
Do, 01.10. 6:20 6.6° C wolkenlos
Do, 01.10. 6:10 6.6° C wolkenlos
Do, 01.10. 6:00 7.0° C fast wolkenlos
Do, 01.10. 5:50 7.0° C fast wolkenlos
Do, 01.10. 5:30 7.0° C leicht bewölkt
Do, 01.10. 5:00 7.6° C fast wolkenlos
Do, 01.10. 4:30 7.7° C fast wolkenlos
Do, 01.10. 4:00 10.0° C wolkenlos
Do, 01.10. 3:30 8.7° C leicht bewölkt
Ortszeit Relative Feuchte Sichtweite
Do, 01.10. 2:00 96% 13 km
Mi, 30.09. 20:00 85% 35 km
Mi, 30.09. 14:00 59% 40 km
Mi, 30.09. 8:00 96% 14 km
Mi, 30.09. 2:00 90% 35 km
Di, 29.09. 20:00 79% 60 km
Di, 29.09. 14:00 51% >70 km
Di, 29.09. 8:00 89% 50 km
Ortszeit Relative Feuchte Sichtweite
Do, 01.10. 7:00 97% 17 km
Do, 01.10. 6:40 97% -
Do, 01.10. 6:30 97% 12 km
Do, 01.10. 6:20 97% -
Do, 01.10. 6:10 97% -
Do, 01.10. 6:00 96% 20 km
Do, 01.10. 5:50 96% -
Do, 01.10. 5:30 95% 20 km
Do, 01.10. 5:00 96% 17 km
Do, 01.10. 4:30 94% 14 km
Do, 01.10. 4:00 86% 29 km
Do, 01.10. 3:30 92% 26 km
Ortszeit Niederschlagsmenge Niederschlagsart
Do, 01.10. 2:00 0.0 l/m2 in 6 Std. -
Mi, 30.09. 20:00 0.0 l/m2 in 12 Std. -
Mi, 30.09. 14:00 0.0 l/m2 in 6 Std. -
Mi, 30.09. 8:00 0.0 l/m2 in 12 Std. -
Mi, 30.09. 2:00 0.0 l/m2 in 6 Std. -
Di, 29.09. 20:00 0.0 l/m2 in 12 Std. -
Di, 29.09. 14:00 0.0 l/m2 in 6 Std. -
Di, 29.09. 8:00 0.0 l/m2 in 12 Std. -
Ortszeit Niederschlagsmenge Niederschlagsart
Do, 01.10. 7:00 0.0 l/m2 in 1 Std. -
Do, 01.10. 6:40 keine Meldung -
Do, 01.10. 6:30 0.0 l/m2 in 1 Std. -
Do, 01.10. 6:20 keine Meldung -
Do, 01.10. 6:10 keine Meldung -
Do, 01.10. 6:00 0.0 l/m2 in 1 Std. -
Do, 01.10. 5:50 keine Meldung -
Do, 01.10. 5:30 0.0 l/m2 in 1 Std. -
Do, 01.10. 5:00 0.0 l/m2 in 1 Std. -
Do, 01.10. 4:30 0.0 l/m2 in 1 Std. -
Do, 01.10. 4:00 0.0 l/m2 in 1 Std. -
Do, 01.10. 3:30 0.0 l/m2 in 1 Std. -
Ortszeit Stärke Spitze Richtung
km/h Bft. km/h Grad Sektor
Do, 01.10. 2:00 4 1 11 10° N
Mi, 30.09. 20:00 4 1 14 320° NW
Mi, 30.09. 14:00 9 2 15 190° S
Mi, 30.09. 8:00 4 1 11 310° NW
Mi, 30.09. 2:00 7 2 7 310° NW
Di, 29.09. 20:00 6 1 13 100° O
Di, 29.09. 14:00 4 1 11 240° SW
Di, 29.09. 8:00 2 1 7 260° W
Ortszeit Stärke Spitze Richtung
km/h Bft. km/h Grad Sektor
Do, 01.10. 7:00 2 1 4 280° W
Do, 01.10. 6:40 2 1 - 260° W
Do, 01.10. 6:30 0 0 4 - -
Do, 01.10. 6:20 2 1 - 320° NW
Do, 01.10. 6:10 0 0 - 280° W
Do, 01.10. 6:00 4 1 4 230° SW
Do, 01.10. 5:50 4 1 - 230° SW
Do, 01.10. 5:30 0 0 4 - -
Do, 01.10. 5:00 0 0 4 - -
Do, 01.10. 4:30 0 0 4 - -
Do, 01.10. 4:00 7 2 11 80° O
Do, 01.10. 3:30 7 2 7 80° O
Ortszeit Untergrenze Bedeckung Gattung
total tief tief mittel hoch
Do, 01.10. 2:00 10500 m 1/8 0/8 - - -
Mi, 30.09. 20:00 10500 m 8/8 0/8 - - -
Mi, 30.09. 14:00 10500 m 7/8 0/8 - - -
Mi, 30.09. 8:00 - 0/8 0/8 - - -
Mi, 30.09. 2:00 - 0/8 0/8 - - -
Di, 29.09. 20:00 8400 m 1/8 0/8 - - -
Di, 29.09. 14:00 6300 m 6/8 2/8 - - -
Di, 29.09. 8:00 1800 m 8/8 8/8 - - -
Ortszeit Bedeckungsgrad in Achtel und Wolkenuntergrenze
Do, 01.10. 7:00 keine Wolken
Do, 01.10. 6:40 keine Wolken
Do, 01.10. 6:30 keine Wolken
Do, 01.10. 6:20 keine Wolken
Do, 01.10. 6:10 keine Wolken
Do, 01.10. 6:00 1(10500m)
Do, 01.10. 5:50 1(10500m)
Do, 01.10. 5:30 5(10500m)
Do, 01.10. 5:00 1(10500m)
Do, 01.10. 4:30 2(10500m)
Do, 01.10. 4:00 keine Wolken
Do, 01.10. 3:30 3(10500m)
Ortszeit Luftdruck NN (hPa) Tendenz (hPa in 3 Std.)
Do, 01.10. 2:00 1013 - 1,5
Mi, 30.09. 20:00 1014 - 0,5
Mi, 30.09. 14:00 1016 - 1,0
Mi, 30.09. 8:00 1018 + 0,4
Mi, 30.09. 2:00 1018 - 0,2
Di, 29.09. 20:00 1017 + 0,9
Di, 29.09. 14:00 1017 - 0,2
Di, 29.09. 8:00 1016 + 0,7
Ortszeit Luftdruck NN (hPa) Tendenz (hPa in 3 Std.)
Do, 01.10. 7:00 1010 - 1,1
Do, 01.10. 6:40 1010 keine Meldung
Do, 01.10. 6:30 1010 - 1,0
Do, 01.10. 6:20 1010 keine Meldung
Do, 01.10. 6:10 1010 keine Meldung
Do, 01.10. 6:00 1011 - 1,2
Do, 01.10. 5:50 1011 keine Meldung
Do, 01.10. 5:30 1011 - 1,6
Do, 01.10. 5:00 1011 - 2,0
Do, 01.10. 4:30 1011 - 2,2
Do, 01.10. 4:00 1011 - 2,2
Do, 01.10. 3:30 1011 - 2,4
Ortszeit Schneehöhe (cm)
Do, 01.10. 2:00 -
Mi, 30.09. 20:00 -
Mi, 30.09. 14:00 -
Mi, 30.09. 8:00 -
Mi, 30.09. 2:00 -
Di, 29.09. 20:00 -
Di, 29.09. 14:00 -
Di, 29.09. 8:00 -
Ortszeit Schneehöhe (cm)
Do, 01.10. 7:00 -
Do, 01.10. 6:40 -
Do, 01.10. 6:30 -
Do, 01.10. 6:20 -
Do, 01.10. 6:10 -
Do, 01.10. 6:00 -
Do, 01.10. 5:50 -
Do, 01.10. 5:30 -
Do, 01.10. 5:00 -
Do, 01.10. 4:30 -
Do, 01.10. 4:00 -
Do, 01.10. 3:30 -
Link zu dieser Seite / Seite empfehlen

Das Wetter in ...